Location: Bulle
(46.6195°N, 7.0567°E)
Time: 16:54:36
(UTC+00:00)

Daily predictions for brighter satellites

Satellite Brightness Start Highest point End
(mag) Time Altitude Azimuth Time Altitude Azimuth Time Altitude Azimuth
Cosmos 1408 Rocket 4.1 16:15:31 10° N 16:19:32 35° ENE 16:23:32 10° SE
Cosmos 1271 Rocket 2.8 16:15:43 10° S 16:19:36 67° E 16:23:33 10° NNE
NOSS 2-1 (E) 2.8 16:16:44 10° SW 16:20:01 82° SE 16:23:21 10° NE
CZ-4B R/B 2.9 16:18:20 10° SSE 16:22:30 70° ENE 16:26:29 10° N
Cosmos 1697 Rocket 3.8 16:18:50 10° N 16:23:15 23° NE 16:27:39 10° E
Cosmos 1980 Rocket 3.8 16:21:26 10° N 16:24:41 15° NE 16:27:56 10° ENE
deb Kosmos-1763 4.4 16:23:40 10° S 16:26:53 40° ESE 16:30:07 10° NE
Lacrosse 5 2.7 16:21:58 10° WNW 16:26:59 57° SW 16:31:59 10° SSE
Nadezhda 4 Rocket 4.3 16:21:13 10° N 16:27:17 46° ENE 16:33:20 10° SSE
USA 267 3.5 16:22:27 10° NE 16:28:58 72° NNW 16:35:28 10° WSW
USA 305 3.1 16:24:54 10° WSW 16:29:05 64° NNW 16:33:18 10° NE
Cosmos 1656 4.0 16:24:39 10° NNW 16:29:54 42° NE 16:35:10 10° SE
CZ-2C R/B 2.9 16:25:42 10° SSE 16:30:44 88° ENE 16:35:35 10° NNW
CZ-4C R/B 4.2 16:27:43 10° N 16:31:38 50° WNW 16:35:18 10° SSW
CZ-4B DEB 4.5 16:27:52 10° SE 16:33:08 47° ENE 16:38:23 10° N
Cosmos 1891 Rocket 4.5 16:29:45 10° S 16:35:54 75° E 16:42:14 10° NNE
Cosmos 1340 Rocket 3.5 16:32:47 10° N 16:36:29 33° ENE 16:40:10 10° SE
USA 229 DEB 4.2 16:31:07 10° NNW 16:37:59 44° NE 16:45:17 10° ESE
USA 229 4.3 16:31:13 10° NNW 16:38:04 44° NE 16:45:22 10° ESE
Cosmos 990 Rocket 4.5 16:36:33 10° N 16:41:25 37° ENE 16:46:12 10° SE
AQUARIUS 4.2 16:37:31 10° SSE 16:41:54 56° ENE 16:46:19 10° N
Lacrosse 5 rocket 3.1 16:39:52 10° NW 16:42:34 18° N 16:45:17 10° NE
ATLAS 2AS CENTAUR R/B 4.1 16:37:55 10° W 16:44:52 34° NNW 16:51:36 10° NNE
Cosmos 1513 Rocket 4.4 16:38:52 10° S 16:44:56 83° E 16:51:09 10° N
USA 276 2.4 16:42:28 10° WNW 16:45:30 48° N 16:47:51 15° E
ATLAS CENTAUR R/B 3.9 16:36:21 10° SSW 16:46:54 43° SE 16:50:57 14° ENE
Cosmos 1933 4.5 16:45:04 10° SE 16:48:17 23° E 16:51:18 11° NE
PAYLOAD B 4.4 16:43:21 10° SE 16:48:44 50° ENE 16:54:08 10° N
SJ 16-02 1.8 16:45:58 10° NNW 16:50:19 65° WSW 16:54:39 10° S
Okean 3 Rocket 4.4 16:49:10 10° NNW 16:53:36 55° W 16:57:58 10° S
Cosmos 1500 Rocket 3.8 16:50:05 10° N 16:54:25 47° ENE 16:58:41 10° SSE
Cosmos 2034 Rocket 4.0 16:48:59 10° S 16:55:03 64° E 17:01:09 10° NNE
CORIOLIS 4.1 16:54:11 10° SSE 16:59:34 85° ENE 17:05:01 10° NNW
USA 306 3.5 16:56:56 10° W 17:01:03 46° NNW 17:04:00 17° NE
CZ-2D R/B 3.3 16:57:21 10° SSE 17:01:06 53° ENE 17:04:52 10° N
NOSS 2-1 (C) 4.2 16:58:19 10° WSW 17:01:17 32° NW 17:04:09 11° NNE
NOSS 3-1 (A) 4.1 16:54:22 10° NW 17:01:36 60° NE 17:10:07 10° ESE
USA 234 4.0 16:56:32 10° SE 17:02:56 56° SW 17:09:22 10° WNW
Meteor 1-20 Rocket 4.3 16:58:51 10° N 17:04:36 58° ENE 17:10:20 10° SSE
NOSS 3-1 (C) 4.1 16:57:22 10° NW 17:04:50 85° NE 17:13:37 10° SE
Cosmos 1805 Rocket 4.0 17:01:12 10° N 17:05:14 36° ENE 17:09:14 10° SE
Cosmos 1842 Rocket 3.6 17:02:22 10° S 17:06:49 86° WNW 17:11:19 10° N
Cosmos 1833 Rocket 3.2 17:03:08 10° S 17:08:13 37° ESE 17:11:51 18° NE
PSLV R/B 3.5 17:09:20 10° SSE 17:13:01 87° ENE 17:16:44 10° NNW
CZ-4B R/B 3.2 17:08:06 10° SE 17:13:25 55° ENE 17:18:39 10° N
Sich 1 3.5 17:12:27 10° N 17:16:26 37° ENE 17:20:25 10° SE
Cosmos 1939 Rocket 4.0 17:12:41 10° S 17:16:41 48° W 17:20:41 10° NNW
SMAP 3.8 17:12:52 10° S 17:17:25 56° W 17:22:02 10° NNW
USA 307 3.7 17:13:27 10° W 17:17:33 42° NNW 17:19:51 22° NE
ARGOS 3.4 17:12:33 10° SE 17:17:43 47° ENE 17:22:53 10° N
ERBS 2.9 17:14:55 10° WSW 17:18:00 45° NNW 17:19:28 26° NNE
Cosmos 1606 4.0 17:15:46 10° SSW 17:19:18 39° WNW 17:22:53 10° N
H-2A R/B 1.9 17:14:06 10° SSE 17:19:20 76° ENE 17:24:27 10° N
Cosmos 1898 Rocket 3.5 17:15:01 10° NNW 17:20:14 57° ENE 17:25:22 10° SE
Cosmos 1634 Rocket 4.2 17:14:37 10° SSE 17:20:38 49° E 17:26:42 10° NNE
MOS 1-B Rocket 4.0 17:15:44 10° NNE 17:21:26 62° ESE 17:27:44 10° S
COSMOS 2455 3.8 17:19:38 10° SSE 17:24:33 27° ESE 17:25:52 25° E
ATLAS CENTAUR R/B 3.4 17:22:38 10° W 17:26:03 23° NW 17:29:26 11° NNE
Cosmos 2221 3.6 17:22:26 10° SSW 17:26:32 45° WNW 17:30:41 10° N
Cosmos 468 Rocket 3.9 17:21:31 10° S 17:26:34 62° ESE 17:30:21 18° NNE
Landsat 5 4.0 17:27:18 32° ENE 17:28:19 37° E 17:32:06 10° SSE
Cosmos 44 3.4 17:23:55 10° NW 17:28:42 70° WSW 17:33:11 10° SSE
COSMO-SKYMED 1 2.6 17:29:13 18° NNE 17:32:17 58° E 17:36:33 10° S
Cosmos 2026 Rocket 3.8 17:28:40 10° N 17:34:51 71° E 17:40:55 10° SSE
Cosmos 540 Rocket 3.7 17:30:28 10° S 17:35:17 45° ESE 17:37:03 32° ENE
SL-08 RB Rocket 4.0 17:31:15 10° SE 17:35:40 45° ENE 17:40:05 10° N
deb Chang Zheng 4 3.4 17:31:45 10° SSE 17:36:03 79° ENE 17:40:23 10° NNW
Cosmos 2195 Rocket 4.4 17:30:48 10° N 17:36:58 85° E 17:43:10 10° S
CZ-2C R/B 2.5 17:33:19 10° NNE 17:38:33 66° ESE 17:43:40 10° S
SJ-11-01 4.2 17:34:51 10° SSE 17:39:33 71° ENE 17:44:18 10° N
USA 308 3.9 17:35:57 10° W 17:39:54 36° NNW 17:41:12 29° NNE
Okean O Rocket 1.5 17:35:53 10° SSE 17:40:18 72° ENE 17:44:46 10° N
Cosmos 1500 3.5 17:37:10 10° N 17:44:46 - SSE 17:40:06 44° NE
Helios 1B 4.4 17:40:04 21° NNE 17:42:54 74° ESE 17:47:13 10° S
Meteor 1-25 Rocket 4.3 17:38:24 10° NNW 17:43:58 77° W 17:49:32 10° S
ISS -2.7 17:41:59 10° WNW 17:44:55 35° N 17:44:55 35° N
Meteor 2-21 4.3 17:40:15 10° N 17:46:23 78° E 17:52:25 10° SSE
CZ-4C R/B 3.3 17:40:32 10° NNW 17:47:05 42° NE 17:49:48 32° E
YAOGAN 1 3.9 17:50:23 24° NNE 17:50:23 24° NNE 17:52:21 10° N
Meteor 1-5 Rocket 4.4 17:49:39 10° N 17:55:30 53° ENE 18:01:19 10° SSE
CZ-4 R/B 3.7 18:00:22 13° N 18:00:22 13° N 18:00:50 10° N
Cosmos 2084 3.4 17:54:04 10° NW 17:58:24 84° SW 17:59:42 45° SSE
Cosmos 2322 Rocket 4.1 17:55:54 10° N 17:57:36 15° NNE 17:57:36 15° NNE
Cosmos 2369 3.6 17:53:52 10° NNW 17:59:37 69° ENE 18:02:24 31° SE
GEOS 3 Rocket 3.6 17:56:54 19° SE 18:00:46 83° SW 18:06:01 10° NW
Cosmos 1782 2.8 17:57:53 10° S 18:01:54 83° W 18:02:36 59° N
Cosmos 1697 Rocket 2.8 18:02:12 10° NNW 18:07:48 73° WSW 18:13:23 10° SSE
Cosmos 1937 Rocket 3.6 18:02:45 10° NNW 18:08:06 80° WSW 18:13:24 10° SSE
Cosmos 1763 Rocket 4.0 18:03:17 10° SW 18:08:16 57° WNW 18:11:17 23° N
USA 305 4.1 18:05:43 10° WNW 18:09:22 31° N 18:09:22 31° N
NOSS 2-2 (C) 4.2 18:04:39 10° NW 18:09:42 65° NE 18:10:59 52° E
Cosmos 841 Rocket 3.3 18:04:41 10° S 18:09:49 69° ESE 18:10:09 67° E
Cosmos 1980 Rocket 2.1 18:04:12 10° NNW 18:09:52 65° ENE 18:10:40 58° ESE
USA 267 4.1 18:08:54 28° NNE 18:11:27 39° NNW 18:17:25 10° WNW
SL-16 R/B 3.9 18:09:25 10° N 18:11:40 19° NNE 18:11:40 19° NNE
Spot 2 4.4 18:14:28 20° SSE 18:18:04 86° ENE 18:23:15 10° NNW
Cosmos 2082 Rocket 2.2 18:13:17 10° S 18:18:33 61° SE 18:18:33 61° SE
USA 276 4.5 18:18:32 10° WNW 18:19:58 24° W 18:19:58 24° W
Lacrosse 5 rocket 3.5 18:19:31 10° NW 18:20:53 17° NNW 18:20:53 17° NNW
Cosmos 1151 Rocket 4.3 18:18:41 10° S 18:20:53 30° S 18:20:53 30° S
COSMOS 2406 3.3 18:18:38 10° SSW 18:24:23 77° WNW 18:26:02 48° NNE
Cosmos 2278 3.9 18:20:00 10° NNW 18:24:48 55° NNE 18:24:48 55° NNE
USA 229 DEB 4.4 18:22:04 10° NW 18:29:17 60° WSW 18:36:56 10° SSE
USA 229 4.4 18:22:10 10° NW 18:29:23 60° WSW 18:37:02 10° SSE
Cosmos 372 Rocket 4.1 18:29:47 10° NNW 18:35:01 74° WSW 18:35:15 72° SW
ATLAS 2AS CENTAUR R/B 4.4 18:32:42 10° NW 18:38:16 21° N 18:39:54 20° NNE
Meteor 2-8 Rocket 4.3 18:32:16 10° S 18:38:25 86° E 18:38:41 82° NE
Cosmos 1833 Rocket 3.8 18:46:51 10° WSW 18:52:06 39° NW 18:53:35 33° NNW
COSMOS 2455 3.4 19:04:08 10° SW 19:09:04 53° W 19:09:04 53° W
ATLAS CENTAUR R/B 4.2 19:12:09 10° W 19:16:49 29° WNW 19:16:49 29° WNW
CZ-4C R/B 3.3 19:28:54 10° NW 19:35:02 60° W 19:35:02 60° W
Cosmos 1980 Rocket 4.4 19:49:11 10° NW 19:52:30 20° W 19:52:30 20° W
